Torna al catalogo

COSMOS 2251 DEB

AttivoLEO
NORAD 34409·DEBRIS·🇷🇺 Russia

Lanciato Jun 16, 1993 da Plesetsk Cosmodrome

Loading…

Prossimi Passaggi (prossime 24 ore)

TLE

AggiornatoSource: Space-Track

Epoca: Sep 14, 2026, 22:30 UTC

1 34409U 93036RA  26257.93753457  .00000463  00000-0  10198-3 0  9991
2 34409  74.0630 142.0487 0079374 146.3398 229.4902 14.58477599932193

Traccia COSMOS 2251 DEB in tempo reale con AllMySat

Download on the App Store